Regional Weather Roundup
Issued by NWS

Home | Current Version | Previous Version | Text Only | Print | Product List | Glossary Off
Versions: 1 2 3 4 5 6 7 8 9 10 11 12 13 14 15 16 17 18 19 20 21 22 23 24 25 26 27 28 29 30 31 32 33 34 35 36 37 38 39 40 41 42 43 44 45 46 47 48 49 50

000
ASUS43 KLOT 031512
RWRIL

ILLINOIS REGIONAL WEATHER ROUNDUP
NATIONAL WEATHER SERVICE CHICAGO/ROMEOVILLE IL
900 AM CST SAT DEC 03 2016

NOTE: "FAIR" INDICATES FEW OR NO CLOUDS BELOW 12,000 FEET WITH NO
SIGNIFICANT WEATHER AND/OR OBSTRUCTIONS TO VISIBILITY.

* THESE STATIONS ARE NOT UNDER NWS QUALITY CONTROL. THEY ALSO MAY NOT
  REPORT WEATHER SUCH AS PRECIPITATION OR FOG.

ILZ001-002-007-009-015-016-024-031600-
NORTHWEST ILLINOIS

CITY           SKY/WX    TMP DP  RH WIND       PRES   REMARKS
MOLINE         CLOUDY    35  23  61 N8        30.34F WCI  29
STERLING*      CLOUDY    32  26  78 N7        30.35F WCI  26
SAVANNA*       CLOUDY    32  26  76 N6        30.34F WCI  27
$$

ILZ003-004-008-010-011-017-018-031600-
NORTH CENTRAL ILLINOIS

CITY           SKY/WX    TMP DP  RH WIND       PRES   REMARKS
ROCKFORD       CLOUDY    32  23  69 NW7       30.36S WCI  26
FREEPORT*      CLOUDY    30  24  77 NW8       30.35S WCI  23
ROCHELLE*      CLOUDY    31  24  76 NW7       30.34F WCI  24
DE KALB*       CLOUDY    31  24  76 NW6       30.33F WCI  25
$$

ILZ005-006-012>014-019>023-031600-
NORTHEAST ILLINOIS

CITY           SKY/WX    TMP DP  RH WIND       PRES   REMARKS
CHICAGO-OHARE  CLOUDY    32  21  64 NW9       30.33F WCI  24
CHICAGO-MIDWAY CLOUDY    34  22  61 N8        30.34F WCI  27
AURORA         CLOUDY    33  24  69 NW9       30.34F WCI  25
LANSING*       CLOUDY    32  26  76 W5        30.34F WCI  28
JOLIET*        CLOUDY    34  26  72 NW6       30.35F WCI  29
WAUKEGAN       CLOUDY    32  24  72 VRB3      30.32F
DUPAGE AIRPORT CLOUDY    32  22  66 NW8       30.33F WCI  25
KANKAKEE*      CLOUDY    34  26  72 NW6       30.34F WCI  29
WHEELING       CLOUDY    32  21  64 NW7       30.35F WCI  26
MORRIS*        CLOUDY    32  26  76 NW5       30.33F WCI  28
ROMEOVILLE*    CLOUDY    32  27  82 NW7       30.34F WCI  26
NORTHERLY ISL    N/A     33  22  64 NW5         N/A  WCI  29
$$

LMZ740>746-031600-
SOUTHERN LAKE MICHIGAN

STATION/POSITION SKY/WX   TEMP    WIND        PRES    VSBY  WAVE
                          AIR SEA DIR/SP/G                  HT/PER
                          (F)     (DEG/KT/KT) (MB)    (MI)  (FT/S)
SOUTHERN BUOY              34 49  270/ 12/ 16 1027.6S         1/ 4
HARRISON CRIB              33     330/ 10/ 13   N/A
BURNHAM HARBOR             33     270/  5/ 11   N/A
CALUMET HARBOR             33     310/  5/  8 1026.9F
BURNS HARBOR               34     270/  3/ 14 1027.8
MICHIGAN CITY              35     210/  9/ 11   N/A
$$

ILZ025>027-034>036-040-047-049-050-058-095>099-031600-
WEST-CENTRAL ILLINOIS

CITY           SKY/WX    TMP DP  RH WIND       PRES   REMARKS
QUINCY         CLOUDY    33  30  88 E5        30.35R WCI  29
GALESBURG*     CLOUDY    33  28  80 N5        30.35R WCI  29
MACOMB*        MOSUNNY   34  31  88 E5        30.38R WCI  30
JACKSONVILLE*  PTSUNNY   35  32  90 E7        30.37R WCI  29
PITTSFIELD*    MOSUNNY   33  32  96 CALM      30.39R
$$

ILZ028>032-037-038-041>044-048-051>054-059>061-031600-
CENTRAL ILLINOIS

CITY           SKY/WX    TMP DP  RH WIND       PRES   REMARKS
PONTIAC        CLOUDY    34  28  80 NW7       30.36S WCI  28
BLOOMINGTON    MOSUNNY   33  26  75 N9        30.35S WCI  25
DECATUR        SUNNY     36  30  79 E6        30.36S WCI  31
PEORIA         MOSUNNY   36  26  67 VRB6      30.36S WCI  31
LACON*         CLOUDY    33  26  76 N6        30.35R WCI  27
LINCOLN*       SUNNY     35  29  79 NE7       30.36S WCI  29
SPRINGFIELD    CLOUDY    36  29  75 NE7       30.35F WCI  30
TAYLORVILLE    MOSUNNY   36  29  76 E3        30.38R
$$

ILZ033-039-045-046-055>057-062-063-031600-
EAST-CENTRAL ILLINOIS

CITY           SKY/WX    TMP DP  RH WIND       PRES   REMARKS
CHAMPAIGN      MOSUNNY   34  25  69 N9        30.35F WCI  27
RANTOUL*       MOSUNNY   35  29  79 NW9       30.36R WCI  28
MATTOON        MOSUNNY   37  27  67 E5        30.35F WCI  33
PARIS*         CLOUDY    35  29  76 N7        30.37S WCI  29
$$

ILZ079-100>102-031600-
SOUTHWEST ILLINOIS

CITY           SKY/WX    TMP DP  RH WIND       PRES   REMARKS
ALTON          PTSUNNY   34  32  93 SE6       30.38R WCI  29
BELLEVILLE     MOSUNNY   34  34  99 CALM      30.37R
CAHOKIA*       MOSUNNY   35  31  85 CALM      30.38R
SPARTA*        SUNNY     34  32  93 CALM      30.39R
$$

ILZ064>066-069>071-074>076-080>082-084>086-088>090-092>094-031600-
SOUTH-CENTRAL ILLINOIS

CITY           SKY/WX    TMP DP  RH WIND       PRES   REMARKS
CARBONDALE     SUNNY     35  35 100 CALM      30.38R
CAIRO*         MOSUNNY   39  33  78 E5        30.37R
EFFINGHAM*     CLOUDY    39  34  82 E3        30.39R
MARION         CLOUDY    39  34  81 CALM      30.38R
CENTRALIA*     CLOUDY    38  35  90 CALM      30.36R
SALEM*         MOSUNNY   40  33  77 SE3       30.37R
METROPOLIS*    MOSUNNY   38  33  80 CALM      30.38R
$$

ILZ067-068-072-073-078-083-087-091-031600-
SOUTHEAST ILLINOIS

CITY           SKY/WX    TMP DP  RH WIND       PRES   REMARKS
LAWRENCEVILLE  CLOUDY    40  33  76 NE8       30.37F
FLORA*         MOSUNNY   41  36  83 E3        30.38R
FAIRFIELD*     MOSUNNY   36  34  92 CALM      30.37R
HARRISBURG*    CLOUDY    35  34  93 CALM      30.39R FOG
ROBINSON*      CLOUDY    37  30  73 NE5       30.39S WCI  34
CARMI*         MOSUNNY   32  32  99 CALM      30.38R FOG
$$

ABBREVIATIONS USED IN REMARKS
   TC - TEMPERATURE IN CELSIUS
  WCI - WIND CHILL INDEX
   HX - HEAT INDEX
  VSB - VISIBILITY
$$




USA.gov is the U.S. government's official web portal to all federal, state and local government web resources and services.